<?xml version='1.0' encoding='UTF-8'?>
<gpx xmlns="http://www.topografix.com/GPX/1/1" creator="www.balnam.be" version="1.1" xmlns:xsi="http://www.w3.org/2001/XMLSchema-instance" xsi:schemaLocation="http://www.topografix.com/GPX/1/1 http://www.topografix.com/GPX/1/1/gpx.xsd">
<trk>
<name>hmoss10</name>
<cmt>r</cmt>
<desc>Saint-Symphorien Chemin n°10 </desc>
<link href="https://chemins.be/saintsymphorien/chemin/10"/><trkseg>
<trkpt lat="50.439018" lon="4.004735"><time>2026-05-02T17:43:01Z</time></trkpt>
<trkpt lat="50.438632" lon="4.004593"><time>2026-05-02T17:53:01Z</time></trkpt>
<trkpt lat="50.438295" lon="4.004619"><time>2026-05-02T18:03:01Z</time></trkpt>
</trkseg></trk>
<trk>
<name>hmoss10</name>
<cmt>q</cmt>
<desc>Saint-Symphorien Chemin n°10 </desc>
<link href="https://chemins.be/saintsymphorien/chemin/10"/><trkseg>
<trkpt lat="50.438295" lon="4.004619"><time>2026-05-02T18:03:01Z</time></trkpt>
<trkpt lat="50.438086" lon="4.004581"><time>2026-05-02T18:13:01Z</time></trkpt>
<trkpt lat="50.438020" lon="4.004906"><time>2026-05-02T18:23:01Z</time></trkpt>
</trkseg>
</trk>
<trk>
<name>hmoss15</name>
<cmt>v</cmt>
<desc>Saint-Symphorien Chemin n°15 </desc>
<link href="https://chemins.be/saintsymphorien/chemin/15"/><trkseg>
<trkpt lat="50.436834" lon="4.032403"><time>2026-05-02T17:43:01Z</time></trkpt>
<trkpt lat="50.437764" lon="4.034489"><time>2026-05-02T17:53:01Z</time></trkpt>
<trkpt lat="50.438300" lon="4.035338"><time>2026-05-02T18:03:01Z</time></trkpt>
</trkseg>
</trk>
<trk>
<name>hmoss16</name>
<cmt>v</cmt>
<desc>Saint-Symphorien Chemin n°16 </desc>
<link href="https://chemins.be/saintsymphorien/chemin/16"/><trkseg>
<trkpt lat="50.435005" lon="4.021460"><time>2026-05-02T17:43:01Z</time></trkpt>
<trkpt lat="50.433574" lon="4.023920"><time>2026-05-02T17:53:01Z</time></trkpt>
<trkpt lat="50.433352" lon="4.024921"><time>2026-05-02T18:03:01Z</time></trkpt>
<trkpt lat="50.432934" lon="4.026458"><time>2026-05-02T18:13:01Z</time></trkpt>
<trkpt lat="50.432453" lon="4.027925"><time>2026-05-02T18:23:01Z</time></trkpt>
<trkpt lat="50.431633" lon="4.030352"><time>2026-05-02T18:33:01Z</time></trkpt>
</trkseg>
</trk>
<trk>
<name>hmoss17</name>
<cmt>v</cmt>
<desc>Saint-Symphorien Chemin n°17 </desc>
<link href="https://chemins.be/saintsymphorien/chemin/17"/><trkseg>
<trkpt lat="50.432698" lon="4.011139"><time>2026-05-02T17:43:01Z</time></trkpt>
<trkpt lat="50.430319" lon="4.011268"><time>2026-05-02T17:53:01Z</time></trkpt>
<trkpt lat="50.429234" lon="4.010849"><time>2026-05-02T18:03:01Z</time></trkpt>
<trkpt lat="50.427122" lon="4.011214"><time>2026-05-02T18:13:01Z</time></trkpt>
<trkpt lat="50.424452" lon="4.011283"><time>2026-05-02T18:23:01Z</time></trkpt>
<trkpt lat="50.423780" lon="4.011300"><time>2026-05-02T18:33:01Z</time></trkpt>
</trkseg>
</trk>
<trk>
<name>hmoss18</name>
<cmt>v</cmt>
<desc>Saint-Symphorien Chemin n°18 Chemin de Procession</desc>
<link href="https://chemins.be/saintsymphorien/chemin/18"/><trkseg>
<trkpt lat="50.451921" lon="4.008058"><time>2026-05-02T17:43:01Z</time></trkpt>
<trkpt lat="50.451797" lon="4.008903"><time>2026-05-02T17:53:01Z</time></trkpt>
<trkpt lat="50.451834" lon="4.009283"><time>2026-05-02T18:03:01Z</time></trkpt>
<trkpt lat="50.452224" lon="4.010336"><time>2026-05-02T18:13:01Z</time></trkpt>
<trkpt lat="50.452012" lon="4.011380"><time>2026-05-02T18:23:01Z</time></trkpt>
</trkseg></trk>
<trk>
<name>hmoss18</name>
<cmt>d</cmt>
<desc>Saint-Symphorien Chemin n°18 Chemin de Procession</desc>
<link href="https://chemins.be/saintsymphorien/chemin/18"/><trkseg>
<trkpt lat="50.452012" lon="4.011380"><time>2026-05-02T18:23:01Z</time></trkpt>
<trkpt lat="50.451540" lon="4.012792"><time>2026-05-02T18:33:01Z</time></trkpt>
</trkseg></trk>
<trk>
<name>hmoss18</name>
<cmt>v</cmt>
<desc>Saint-Symphorien Chemin n°18 Chemin de Procession</desc>
<link href="https://chemins.be/saintsymphorien/chemin/18"/><trkseg>
<trkpt lat="50.451540" lon="4.012792"><time>2026-05-02T18:33:01Z</time></trkpt>
<trkpt lat="50.451144" lon="4.012795"><time>2026-05-02T18:43:01Z</time></trkpt>
</trkseg></trk>
<trk>
<name>hmoss18</name>
<cmt>q</cmt>
<desc>Saint-Symphorien Chemin n°18 Chemin de Procession</desc>
<link href="https://chemins.be/saintsymphorien/chemin/18"/><trkseg>
<trkpt lat="50.451144" lon="4.012795"><time>2026-05-02T18:43:01Z</time></trkpt>
<trkpt lat="50.451039" lon="4.013753"><time>2026-05-02T18:53:01Z</time></trkpt>
</trkseg>
</trk>
<trk>
<name>hmoss19</name>
<cmt>v</cmt>
<desc>Saint-Symphorien Chemin n°19 </desc>
<link href="https://chemins.be/saintsymphorien/chemin/19"/><trkseg>
<trkpt lat="50.452039" lon="4.011380"><time>2026-05-02T17:43:01Z</time></trkpt>
<trkpt lat="50.453212" lon="4.012920"><time>2026-05-02T17:53:01Z</time></trkpt>
</trkseg>
</trk>
<trk>
<name>hmoss20</name>
<cmt>v</cmt>
<desc>Saint-Symphorien Chemin n°20 Chemin Brulotte</desc>
<link href="https://chemins.be/saintsymphorien/chemin/20"/><trkseg>
<trkpt lat="50.452351" lon="4.007688"><time>2026-05-02T17:43:01Z</time></trkpt>
<trkpt lat="50.452276" lon="4.006844"><time>2026-05-02T17:53:01Z</time></trkpt>
<trkpt lat="50.452593" lon="4.004490"><time>2026-05-02T18:03:01Z</time></trkpt>
<trkpt lat="50.453026" lon="4.002163"><time>2026-05-02T18:13:01Z</time></trkpt>
</trkseg>
</trk>
<trk>
<name>hmoss21</name>
<cmt>v</cmt>
<desc>Saint-Symphorien Chemin n°21 </desc>
<link href="https://chemins.be/saintsymphorien/chemin/21"/><trkseg>
<trkpt lat="50.445709" lon="4.011202"><time>2026-05-02T17:43:01Z</time></trkpt>
<trkpt lat="50.445949" lon="4.010356"><time>2026-05-02T17:53:01Z</time></trkpt>
</trkseg>
</trk>
<trk>
<name>hmoss22</name>
<cmt>v</cmt>
<desc>Saint-Symphorien Sentier n°22 Piedsente du Cabinet Cossee</desc>
<link href="https://chemins.be/saintsymphorien/sentier/22"/><trkseg>
<trkpt lat="50.441431" lon="4.005800"><time>2026-05-02T17:43:01Z</time></trkpt>
<trkpt lat="50.441463" lon="4.004533"><time>2026-05-02T17:53:01Z</time></trkpt>
<trkpt lat="50.441561" lon="4.004335"><time>2026-05-02T18:03:01Z</time></trkpt>
<trkpt lat="50.441488" lon="4.004096"><time>2026-05-02T18:13:01Z</time></trkpt>
<trkpt lat="50.441495" lon="4.003491"><time>2026-05-02T18:23:01Z</time></trkpt>
<trkpt lat="50.441521" lon="4.002914"><time>2026-05-02T18:33:01Z</time></trkpt>
<trkpt lat="50.441520" lon="4.002815"><time>2026-05-02T18:43:01Z</time></trkpt>
<trkpt lat="50.441500" lon="4.001985"><time>2026-05-02T18:53:01Z</time></trkpt>
<trkpt lat="50.441470" lon="4.001253"><time>2026-05-02T19:03:01Z</time></trkpt>
<trkpt lat="50.441479" lon="4.001154"><time>2026-05-02T19:13:01Z</time></trkpt>
</trkseg>
</trk>
<trk>
<name>hmoss23</name>
<cmt>v</cmt>
<desc>Saint-Symphorien Sentier n°23 Piedsente d'Obourg</desc>
<link href="https://chemins.be/saintsymphorien/sentier/23"/><trkseg>
<trkpt lat="50.441764" lon="4.006136"><time>2026-05-02T17:43:01Z</time></trkpt>
<trkpt lat="50.444502" lon="4.007635"><time>2026-05-02T17:53:01Z</time></trkpt>
<trkpt lat="50.445034" lon="4.008040"><time>2026-05-02T18:03:01Z</time></trkpt>
</trkseg></trk>
<trk>
<name>hmoss23</name>
<cmt>d</cmt>
<desc>Saint-Symphorien Sentier n°23 Piedsente d'Obourg</desc>
<link href="https://chemins.be/saintsymphorien/sentier/23"/><trkseg>
<trkpt lat="50.445034" lon="4.008040"><time>2026-05-02T18:03:01Z</time></trkpt>
<trkpt lat="50.446708" lon="4.008646"><time>2026-05-02T18:13:01Z</time></trkpt>
<trkpt lat="50.449575" lon="4.008258"><time>2026-05-02T18:23:01Z</time></trkpt>
<trkpt lat="50.450984" lon="4.007670"><time>2026-05-02T18:33:01Z</time></trkpt>
<trkpt lat="50.452277" lon="4.007097"><time>2026-05-02T18:43:01Z</time></trkpt>
<trkpt lat="50.453687" lon="4.006481"><time>2026-05-02T18:53:01Z</time></trkpt>
</trkseg>
</trk>
<trk>
<name>hmoss24</name>
<cmt>q</cmt>
<desc>Saint-Symphorien Sentier n°24 </desc>
<link href="https://chemins.be/saintsymphorien/sentier/24"/><trkseg>
<trkpt lat="50.447701" lon="3.995713"><time>2026-05-02T17:43:01Z</time></trkpt>
<trkpt lat="50.447610" lon="3.997995"><time>2026-05-02T17:53:01Z</time></trkpt>
<trkpt lat="50.447279" lon="3.998800"><time>2026-05-02T18:03:01Z</time></trkpt>
</trkseg></trk>
<trk>
<name>hmoss24</name>
<cmt>v</cmt>
<desc>Saint-Symphorien Sentier n°24 </desc>
<link href="https://chemins.be/saintsymphorien/sentier/24"/><trkseg>
<trkpt lat="50.447279" lon="3.998800"><time>2026-05-02T18:03:01Z</time></trkpt>
<trkpt lat="50.445790" lon="4.002655"><time>2026-05-02T18:13:01Z</time></trkpt>
<trkpt lat="50.444466" lon="4.007678"><time>2026-05-02T18:23:01Z</time></trkpt>
<trkpt lat="50.443771" lon="4.009739"><time>2026-05-02T18:33:01Z</time></trkpt>
<trkpt lat="50.443496" lon="4.010811"><time>2026-05-02T18:43:01Z</time></trkpt>
<trkpt lat="50.443617" lon="4.011992"><time>2026-05-02T18:53:01Z</time></trkpt>
</trkseg></trk>
<trk>
<name>hmoss24</name>
<cmt>q</cmt>
<desc>Saint-Symphorien Sentier n°24 </desc>
<link href="https://chemins.be/saintsymphorien/sentier/24"/><trkseg>
<trkpt lat="50.443617" lon="4.011992"><time>2026-05-02T18:53:01Z</time></trkpt>
<trkpt lat="50.443709" lon="4.012850"><time>2026-05-02T19:03:01Z</time></trkpt>
<trkpt lat="50.443513" lon="4.013500"><time>2026-05-02T19:13:01Z</time></trkpt>
<trkpt lat="50.441765" lon="4.015188"><time>2026-05-02T19:23:01Z</time></trkpt>
<trkpt lat="50.441177" lon="4.016783"><time>2026-05-02T19:33:01Z</time></trkpt>
<trkpt lat="50.440119" lon="4.017678"><time>2026-05-02T19:43:01Z</time></trkpt>
<trkpt lat="50.438957" lon="4.020009"><time>2026-05-02T19:53:01Z</time></trkpt>
<trkpt lat="50.438895" lon="4.020277"><time>2026-05-02T20:03:01Z</time></trkpt>
<trkpt lat="50.438239" lon="4.020920"><time>2026-05-02T20:13:01Z</time></trkpt>
<trkpt lat="50.437973" lon="4.020695"><time>2026-05-02T20:23:01Z</time></trkpt>
</trkseg></trk>
<trk>
<name>hmoss24</name>
<cmt>v</cmt>
<desc>Saint-Symphorien Sentier n°24 </desc>
<link href="https://chemins.be/saintsymphorien/sentier/24"/><trkseg>
<trkpt lat="50.437973" lon="4.020695"><time>2026-05-02T20:23:01Z</time></trkpt>
<trkpt lat="50.437981" lon="4.021424"><time>2026-05-02T20:33:01Z</time></trkpt>
<trkpt lat="50.434268" lon="4.027377"><time>2026-05-02T20:43:01Z</time></trkpt>
</trkseg>
</trk>
<trk>
<name>hmoss25</name>
<cmt>v</cmt>
<desc>Saint-Symphorien Sentier n°25 Piedsente d'Obourg</desc>
<link href="https://chemins.be/saintsymphorien/sentier/25"/><trkseg>
<trkpt lat="50.445949" lon="4.010313"><time>2026-05-02T17:43:01Z</time></trkpt>
<trkpt lat="50.445079" lon="4.008067"><time>2026-05-02T17:53:01Z</time></trkpt>
</trkseg>
</trk>
<trk>
<name>hmoss26</name>
<cmt>v</cmt>
<desc>Saint-Symphorien Sentier n°26 Ruelle Saint Léonard / Ruelle Saint-Léonard</desc>
<link href="https://chemins.be/saintsymphorien/sentier/26"/><trkseg>
<trkpt lat="50.449467" lon="4.011230"><time>2026-05-02T17:43:01Z</time></trkpt>
<trkpt lat="50.449917" lon="4.011523"><time>2026-05-02T17:53:01Z</time></trkpt>
<trkpt lat="50.450577" lon="4.012461"><time>2026-05-02T18:03:01Z</time></trkpt>
<trkpt lat="50.450883" lon="4.012839"><time>2026-05-02T18:13:01Z</time></trkpt>
<trkpt lat="50.451576" lon="4.012848"><time>2026-05-02T18:23:01Z</time></trkpt>
<trkpt lat="50.451805" lon="4.014325"><time>2026-05-02T18:33:01Z</time></trkpt>
<trkpt lat="50.452013" lon="4.014858"><time>2026-05-02T18:43:01Z</time></trkpt>
</trkseg>
</trk>
<trk>
<name>hmoss27</name>
<cmt>q</cmt>
<desc>Saint-Symphorien Sentier n°27 </desc>
<link href="https://chemins.be/saintsymphorien/sentier/27"/><trkseg>
<trkpt lat="50.440493" lon="4.013607"><time>2026-05-02T17:43:01Z</time></trkpt>
<trkpt lat="50.441125" lon="4.014531"><time>2026-05-02T17:53:01Z</time></trkpt>
<trkpt lat="50.441569" lon="4.015598"><time>2026-05-02T18:03:01Z</time></trkpt>
<trkpt lat="50.445693" lon="4.018770"><time>2026-05-02T18:13:01Z</time></trkpt>
<trkpt lat="50.446950" lon="4.020515"><time>2026-05-02T18:23:01Z</time></trkpt>
<trkpt lat="50.447369" lon="4.022010"><time>2026-05-02T18:33:01Z</time></trkpt>
</trkseg>
</trk>
<trk>
<name>hmoss28</name>
<cmt>d</cmt>
<desc>Saint-Symphorien Sentier n°28 </desc>
<link href="https://chemins.be/saintsymphorien/sentier/28"/><trkseg>
<trkpt lat="50.441819" lon="4.006375"><time>2026-05-02T17:43:01Z</time></trkpt>
<trkpt lat="50.442753" lon="4.008887"><time>2026-05-02T17:53:01Z</time></trkpt>
<trkpt lat="50.443455" lon="4.009192"><time>2026-05-02T18:03:01Z</time></trkpt>
<trkpt lat="50.443663" lon="4.009711"><time>2026-05-02T18:13:01Z</time></trkpt>
<trkpt lat="50.444762" lon="4.010365"><time>2026-05-02T18:23:01Z</time></trkpt>
<trkpt lat="50.445868" lon="4.010441"><time>2026-05-02T18:33:01Z</time></trkpt>
<trkpt lat="50.446894" lon="4.010546"><time>2026-05-02T18:43:01Z</time></trkpt>
<trkpt lat="50.446841" lon="4.010870"><time>2026-05-02T18:53:01Z</time></trkpt>
</trkseg>
</trk>
<trk>
<name>hmoss29</name>
<cmt>v</cmt>
<desc>Saint-Symphorien Sentier n°29 Ruelle Saint-Roch</desc>
<link href="https://chemins.be/saintsymphorien/sentier/29"/><trkseg>
<trkpt lat="50.441701" lon="4.006038"><time>2026-05-02T17:43:01Z</time></trkpt>
<trkpt lat="50.441422" lon="4.005758"><time>2026-05-02T17:53:01Z</time></trkpt>
<trkpt lat="50.440121" lon="4.006004"><time>2026-05-02T18:03:01Z</time></trkpt>
</trkseg></trk>
<trk>
<name>hmoss29</name>
<cmt>r</cmt>
<desc>Saint-Symphorien Sentier n°29 Ruelle Saint-Roch</desc>
<link href="https://chemins.be/saintsymphorien/sentier/29"/><trkseg>
<trkpt lat="50.440121" lon="4.006004"><time>2026-05-02T18:03:01Z</time></trkpt>
<trkpt lat="50.439939" lon="4.006069"><time>2026-05-02T18:13:01Z</time></trkpt>
<trkpt lat="50.438740" lon="4.005904"><time>2026-05-02T18:23:01Z</time></trkpt>
</trkseg>
</trk>
<trk>
<name>hmoss30</name>
<cmt>v</cmt>
<desc>Saint-Symphorien Sentier n°30 Sentier Sebille</desc>
<link href="https://chemins.be/saintsymphorien/sentier/30"/><trkseg>
<trkpt lat="50.437801" lon="4.006560"><time>2026-05-02T17:43:01Z</time></trkpt>
<trkpt lat="50.437585" lon="4.006477"><time>2026-05-02T17:53:01Z</time></trkpt>
<trkpt lat="50.437567" lon="4.006463"><time>2026-05-02T18:03:01Z</time></trkpt>
<trkpt lat="50.437134" lon="4.005875"><time>2026-05-02T18:13:01Z</time></trkpt>
<trkpt lat="50.437116" lon="4.005875"><time>2026-05-02T18:23:01Z</time></trkpt>
<trkpt lat="50.437089" lon="4.005876"><time>2026-05-02T18:33:01Z</time></trkpt>
<trkpt lat="50.437035" lon="4.005961"><time>2026-05-02T18:43:01Z</time></trkpt>
<trkpt lat="50.436990" lon="4.006003"><time>2026-05-02T18:53:01Z</time></trkpt>
<trkpt lat="50.436936" lon="4.006046"><time>2026-05-02T19:03:01Z</time></trkpt>
<trkpt lat="50.436900" lon="4.006046"><time>2026-05-02T19:13:01Z</time></trkpt>
<trkpt lat="50.436855" lon="4.006046"><time>2026-05-02T19:23:01Z</time></trkpt>
<trkpt lat="50.436801" lon="4.006019"><time>2026-05-02T19:33:01Z</time></trkpt>
<trkpt lat="50.436486" lon="4.005880"><time>2026-05-02T19:43:01Z</time></trkpt>
<trkpt lat="50.436288" lon="4.005826"><time>2026-05-02T19:53:01Z</time></trkpt>
<trkpt lat="50.435982" lon="4.005729"><time>2026-05-02T20:03:01Z</time></trkpt>
<trkpt lat="50.435595" lon="4.005606"><time>2026-05-02T20:13:01Z</time></trkpt>
<trkpt lat="50.435550" lon="4.005578"><time>2026-05-02T20:23:01Z</time></trkpt>
<trkpt lat="50.434548" lon="4.004206"><time>2026-05-02T20:33:01Z</time></trkpt>
</trkseg>
</trk>
<trk>
<name>hmoss31</name>
<cmt>q</cmt>
<desc>Saint-Symphorien Sentier n°31 </desc>
<link href="https://chemins.be/saintsymphorien/sentier/31"/><trkseg>
<trkpt lat="50.437107" lon="4.005868"><time>2026-05-02T17:43:01Z</time></trkpt>
<trkpt lat="50.437240" lon="4.005529"><time>2026-05-02T17:53:01Z</time></trkpt>
<trkpt lat="50.437497" lon="4.004998"><time>2026-05-02T18:03:01Z</time></trkpt>
</trkseg>
</trk>
<trk>
<name>hmoss32</name>
<cmt>r</cmt>
<desc>Saint-Symphorien Sentier n°32 Rue Albert Clerfayt</desc>
<link href="https://chemins.be/saintsymphorien/sentier/32"/><trkseg>
<trkpt lat="50.438013" lon="4.009493"><time>2026-05-02T17:43:01Z</time></trkpt>
<trkpt lat="50.438290" lon="4.010602"><time>2026-05-02T17:53:01Z</time></trkpt>
<trkpt lat="50.437972" lon="4.011753"><time>2026-05-02T18:03:01Z</time></trkpt>
</trkseg>
</trk>
<trk>
<name>hmoss33</name>
<cmt>r</cmt>
<desc>Saint-Symphorien Sentier n°33 Rue Fernand Huart</desc>
<link href="https://chemins.be/saintsymphorien/sentier/33"/><trkseg>
<trkpt lat="50.439312" lon="4.009851"><time>2026-05-02T17:43:01Z</time></trkpt>
<trkpt lat="50.438834" lon="4.010152"><time>2026-05-02T17:53:01Z</time></trkpt>
</trkseg></trk>
<trk>
<name>hmoss33</name>
<cmt>v</cmt>
<desc>Saint-Symphorien Sentier n°33 Rue Fernand Huart</desc>
<link href="https://chemins.be/saintsymphorien/sentier/33"/><trkseg>
<trkpt lat="50.438834" lon="4.010152"><time>2026-05-02T17:53:01Z</time></trkpt>
<trkpt lat="50.438544" lon="4.010359"><time>2026-05-02T18:03:01Z</time></trkpt>
</trkseg></trk>
<trk>
<name>hmoss33</name>
<cmt>r</cmt>
<desc>Saint-Symphorien Sentier n°33 Rue Fernand Huart</desc>
<link href="https://chemins.be/saintsymphorien/sentier/33"/><trkseg>
<trkpt lat="50.438544" lon="4.010359"><time>2026-05-02T18:03:01Z</time></trkpt>
<trkpt lat="50.438271" lon="4.010413"><time>2026-05-02T18:13:01Z</time></trkpt>
</trkseg>
</trk>
<trk>
<name>hmoss34</name>
<cmt>v</cmt>
<desc>Saint-Symphorien Sentier n°34 Pied sente de Hargmignies / Rue Arthur Duquesnes / Sentier Sébille</desc>
<link href="https://chemins.be/saintsymphorien/sentier/34"/><trkseg>
<trkpt lat="50.432551" lon="4.006600"><time>2026-05-02T17:43:01Z</time></trkpt>
<trkpt lat="50.432829" lon="4.006640"><time>2026-05-02T17:53:01Z</time></trkpt>
<trkpt lat="50.433162" lon="4.006666"><time>2026-05-02T18:03:01Z</time></trkpt>
<trkpt lat="50.433567" lon="4.006719"><time>2026-05-02T18:13:01Z</time></trkpt>
<trkpt lat="50.433747" lon="4.006774"><time>2026-05-02T18:23:01Z</time></trkpt>
<trkpt lat="50.434386" lon="4.006966"><time>2026-05-02T18:33:01Z</time></trkpt>
<trkpt lat="50.434845" lon="4.007075"><time>2026-05-02T18:43:01Z</time></trkpt>
<trkpt lat="50.435169" lon="4.007143"><time>2026-05-02T18:53:01Z</time></trkpt>
<trkpt lat="50.435263" lon="4.007133"><time>2026-05-02T19:03:01Z</time></trkpt>
</trkseg></trk>
<trk>
<name>hmoss34</name>
<cmt>r</cmt>
<desc>Saint-Symphorien Sentier n°34 Pied sente de Hargmignies / Rue Arthur Duquesnes / Sentier Sébille</desc>
<link href="https://chemins.be/saintsymphorien/sentier/34"/><trkseg>
<trkpt lat="50.435263" lon="4.007133"><time>2026-05-02T19:03:01Z</time></trkpt>
<trkpt lat="50.435215" lon="4.006783"><time>2026-05-02T19:13:01Z</time></trkpt>
<trkpt lat="50.435577" lon="4.005544"><time>2026-05-02T19:23:01Z</time></trkpt>
</trkseg>
</trk>
<trk>
<name>hmoss35</name>
<cmt>v</cmt>
<desc>Saint-Symphorien Sentier n°35 </desc>
<link href="https://chemins.be/saintsymphorien/sentier/35"/><trkseg>
<trkpt lat="50.429465" lon="4.036110"><time>2026-05-02T17:43:01Z</time></trkpt>
<trkpt lat="50.429883" lon="4.034657"><time>2026-05-02T17:53:01Z</time></trkpt>
<trkpt lat="50.430187" lon="4.033923"><time>2026-05-02T18:03:01Z</time></trkpt>
</trkseg></trk>
<trk>
<name>hmoss35</name>
<cmt>d</cmt>
<desc>Saint-Symphorien Sentier n°35 </desc>
<link href="https://chemins.be/saintsymphorien/sentier/35"/><trkseg>
<trkpt lat="50.430187" lon="4.033923"><time>2026-05-02T18:03:01Z</time></trkpt>
<trkpt lat="50.430875" lon="4.032440"><time>2026-05-02T18:13:01Z</time></trkpt>
<trkpt lat="50.431278" lon="4.031931"><time>2026-05-02T18:23:01Z</time></trkpt>
<trkpt lat="50.431597" lon="4.030437"><time>2026-05-02T18:33:01Z</time></trkpt>
</trkseg>
</trk>
<trk>
<name>hmoss6</name>
<cmt>v</cmt>
<desc>Saint-Symphorien Chemin n°6 Rue Blancart</desc>
<link href="https://chemins.be/saintsymphorien/chemin/6"/><trkseg>
<trkpt lat="50.435314" lon="4.019601"><time>2026-05-02T17:43:01Z</time></trkpt>
<trkpt lat="50.434084" lon="4.019215"><time>2026-05-02T17:53:01Z</time></trkpt>
<trkpt lat="50.433031" lon="4.019279"><time>2026-05-02T18:03:01Z</time></trkpt>
<trkpt lat="50.431350" lon="4.019591"><time>2026-05-02T18:13:01Z</time></trkpt>
<trkpt lat="50.429983" lon="4.020288"><time>2026-05-02T18:23:01Z</time></trkpt>
<trkpt lat="50.428609" lon="4.020288"><time>2026-05-02T18:33:01Z</time></trkpt>
<trkpt lat="50.425691" lon="4.019837"><time>2026-05-02T18:43:01Z</time></trkpt>
<trkpt lat="50.424949" lon="4.019878"><time>2026-05-02T18:53:01Z</time></trkpt>
<trkpt lat="50.424064" lon="4.019912"><time>2026-05-02T19:03:01Z</time></trkpt>
</trkseg>
</trk>
<trk>
<name>hmoss7</name>
<cmt>v</cmt>
<desc>Saint-Symphorien Chemin n°7 </desc>
<link href="https://chemins.be/saintsymphorien/chemin/7"/><trkseg>
<trkpt lat="50.433023" lon="4.019235"><time>2026-05-02T17:43:01Z</time></trkpt>
<trkpt lat="50.432893" lon="4.014030"><time>2026-05-02T17:53:01Z</time></trkpt>
<trkpt lat="50.432729" lon="4.011090"><time>2026-05-02T18:03:01Z</time></trkpt>
</trkseg>
</trk>
<trk>
<name>hmoss8</name>
<cmt>v</cmt>
<desc>Saint-Symphorien Chemin n°8 Avenue de la Shangri</desc>
<link href="https://chemins.be/saintsymphorien/chemin/8"/><trkseg>
<trkpt lat="50.432433" lon="4.000870"><time>2026-05-02T17:43:01Z</time></trkpt>
<trkpt lat="50.432337" lon="4.005119"><time>2026-05-02T17:53:01Z</time></trkpt>
<trkpt lat="50.432555" lon="4.006601"><time>2026-05-02T18:03:01Z</time></trkpt>
<trkpt lat="50.432775" lon="4.008102"><time>2026-05-02T18:13:01Z</time></trkpt>
<trkpt lat="50.432718" lon="4.011130"><time>2026-05-02T18:23:01Z</time></trkpt>
</trkseg>
</trk>
<trk>
<name>hmoss9</name>
<cmt>q</cmt>
<desc>Saint-Symphorien Chemin n°9 </desc>
<link href="https://chemins.be/saintsymphorien/chemin/9"/><trkseg>
<trkpt lat="50.438005" lon="4.004931"><time>2026-05-02T17:43:01Z</time></trkpt>
<trkpt lat="50.437497" lon="4.005020"><time>2026-05-02T17:53:01Z</time></trkpt>
<trkpt lat="50.437383" lon="4.004687"><time>2026-05-02T18:03:01Z</time></trkpt>
</trkseg>
</trk>
<trk>
<name>hmossi1</name>
<cmt>s</cmt>
<desc>Saint-Symphorien Chemin n°i1 </desc>
<link href="https://chemins.be/saintsymphorien/chemin/i1"/><trkseg>
<trkpt lat="50.452871" lon="4.013063"><time>2026-05-02T17:43:01Z</time></trkpt>
<trkpt lat="50.452505" lon="4.013911"><time>2026-05-02T17:53:01Z</time></trkpt>
<trkpt lat="50.451905" lon="4.014704"><time>2026-05-02T18:03:01Z</time></trkpt>
<trkpt lat="50.451430" lon="4.015243"><time>2026-05-02T18:13:01Z</time></trkpt>
<trkpt lat="50.448794" lon="4.017600"><time>2026-05-02T18:23:01Z</time></trkpt>
</trkseg>
</trk>
<trk>
<name>hmossi10</name>
<cmt>q</cmt>
<desc>Saint-Symphorien Chemin n°i10 </desc>
<link href="https://chemins.be/saintsymphorien/chemin/i10"/><trkseg>
<trkpt lat="50.453140" lon="4.012949"><time>2026-05-02T17:43:01Z</time></trkpt>
<trkpt lat="50.452880" lon="4.012937"><time>2026-05-02T17:53:01Z</time></trkpt>
<trkpt lat="50.451638" lon="4.012805"><time>2026-05-02T18:03:01Z</time></trkpt>
</trkseg></trk>
<trk>
<name>hmossi10</name>
<cmt>v</cmt>
<desc>Saint-Symphorien Chemin n°i10 </desc>
<link href="https://chemins.be/saintsymphorien/chemin/i10"/><trkseg>
<trkpt lat="50.451638" lon="4.012805"><time>2026-05-02T18:03:01Z</time></trkpt>
<trkpt lat="50.450838" lon="4.012839"><time>2026-05-02T18:13:01Z</time></trkpt>
</trkseg></trk>
<trk>
<name>hmossi10</name>
<cmt>q</cmt>
<desc>Saint-Symphorien Chemin n°i10 </desc>
<link href="https://chemins.be/saintsymphorien/chemin/i10"/><trkseg>
<trkpt lat="50.450838" lon="4.012839"><time>2026-05-02T18:13:01Z</time></trkpt>
<trkpt lat="50.450739" lon="4.012826"><time>2026-05-02T18:23:01Z</time></trkpt>
<trkpt lat="50.448076" lon="4.011973"><time>2026-05-02T18:33:01Z</time></trkpt>
<trkpt lat="50.447230" lon="4.011796"><time>2026-05-02T18:43:01Z</time></trkpt>
<trkpt lat="50.446916" lon="4.011841"><time>2026-05-02T18:53:01Z</time></trkpt>
<trkpt lat="50.447008" lon="4.012516"><time>2026-05-02T19:03:01Z</time></trkpt>
<trkpt lat="50.447036" lon="4.012910"><time>2026-05-02T19:13:01Z</time></trkpt>
<trkpt lat="50.446975" lon="4.013516"><time>2026-05-02T19:23:01Z</time></trkpt>
<trkpt lat="50.446380" lon="4.013225"><time>2026-05-02T19:33:01Z</time></trkpt>
<trkpt lat="50.446073" lon="4.012819"><time>2026-05-02T19:43:01Z</time></trkpt>
<trkpt lat="50.446035" lon="4.012115"><time>2026-05-02T19:53:01Z</time></trkpt>
<trkpt lat="50.445611" lon="4.011668"><time>2026-05-02T20:03:01Z</time></trkpt>
</trkseg>
</trk>
<trk>
<name>hmossi2</name>
<cmt>v</cmt>
<desc>Saint-Symphorien Chemin n°i2 </desc>
<link href="https://chemins.be/saintsymphorien/chemin/i2"/><trkseg>
<trkpt lat="50.445971" lon="3.997431"><time>2026-05-02T17:43:01Z</time></trkpt>
<trkpt lat="50.447297" lon="3.998744"><time>2026-05-02T17:53:01Z</time></trkpt>
</trkseg>
</trk>
<trk>
<name>hmossi3</name>
<cmt>v</cmt>
<desc>Saint-Symphorien Chemin n°i3 </desc>
<link href="https://chemins.be/saintsymphorien/chemin/i3"/><trkseg>
<trkpt lat="50.424950" lon="4.019949"><time>2026-05-02T17:43:01Z</time></trkpt>
<trkpt lat="50.424556" lon="4.014971"><time>2026-05-02T17:53:01Z</time></trkpt>
<trkpt lat="50.424479" lon="4.011297"><time>2026-05-02T18:03:01Z</time></trkpt>
</trkseg>
</trk>
<trk>
<name>hmossi4</name>
<cmt>q</cmt>
<desc>Saint-Symphorien Sentier n°i4 </desc>
<link href="https://chemins.be/saintsymphorien/sentier/i4"/><trkseg>
<trkpt lat="50.438424" lon="4.012480"><time>2026-05-02T17:43:01Z</time></trkpt>
<trkpt lat="50.437768" lon="4.012398"><time>2026-05-02T17:53:01Z</time></trkpt>
</trkseg>
</trk>
<trk>
<name>hmossp1</name>
<cmt>q</cmt>
<desc>Saint-Symphorien Chemin particulier n°p1 </desc>
<link href="https://chemins.be/saintsymphorien/chemin/p1"/><trkseg>
<trkpt lat="50.442832" lon="3.999530"><time>2026-05-02T17:43:01Z</time></trkpt>
<trkpt lat="50.441830" lon="3.998311"><time>2026-05-02T17:53:01Z</time></trkpt>
</trkseg>
</trk>
<trk>
<name>hmossp2</name>
<cmt>s</cmt>
<desc>Saint-Symphorien Chemin particulier n°p2 </desc>
<link href="https://chemins.be/saintsymphorien/chemin/p2"/><trkseg>
<trkpt lat="50.439803" lon="4.002412"><time>2026-05-02T17:43:01Z</time></trkpt>
<trkpt lat="50.437753" lon="4.001296"><time>2026-05-02T17:53:01Z</time></trkpt>
</trkseg>
</trk>
</gpx>